Location: Constantia
(34.0183°S, 18.4411°E)
Time: 18:40:16
(UTC+00:00)

Cosmos 1076 Rocket - Pass Details

Date: 17 February 2020
Orbit: 588 x 614 km, 82.5° (Epoch: 29 March)

Event Time Altitude Azimuth Distance (km) Brightness Sun altitude
Exits shadow 03:33:07 - 339° (NNW) 2,369 6.1 -10.5°
Reaches altitude 10° 03:34:16 10° 335° (NNW) 1,921 5.7 -10.3°
Maximum altitude 03:38:20 46° 261° (W) 807 3.8 -9.5°
Drops below altitude 10° 03:42:29 10° 187° (S) 1,945 6.3 -8.7°
Sets 03:44:47 0° 180° (S) 2,855 7.3 -8.3°
